Weather History for Montreal, QC

Change the Weather History Date:

Sunday, October 14, 2012

  Actual Average Record
Temperature  
Mean Temperature 44 °F -  
Max Temperature 50 °F 54 °F 76 °F (2014)
Min Temperature 39 °F 39 °F 33 °F (1996)
Degree Days  
Heating Degree Days 20    
Moisture  
Dew Point 43 °F    
Average Humidity 93    
Maximum Humidity 100    
Minimum Humidity 81    
Precipitation  
Precipitation 0.28 in - - ()
Sea Level Pressure  
Sea Level Pressure 29.95 in    
Wind  
Wind Speed 8 mph ()    
Max Wind Speed 15 mph    
Max Gust Speed 21 mph    
Visibility 4.3 miles    
Events Rain    
Averages and records for this station are not official NWS values.
T = Trace of Precipitation, MM = Missing Value Source: Averaged Metar Reports

Daily Weather History Graph

Daily Weather History Graph

Search for Another Location

Airport:

Trip Planner

Search our weather history database for the weather conditions in past years. The results will help you decide how hot, cold, wet, or windy it might be!

Date:

Astronomy

Oct. 14, 2012 Rise Set
Actual Time 7:10 AM EDT 6:10 PM EDT
Civil Twilight 6:40 AM EDT 6:40 PM EDT
Nautical Twilight 6:06 AM EDT 7:14 PM EDT
Astronomical Twilight 5:32 AM EDT 7:48 PM EDT
Moon 6:05 AM EDT (10/14) 5:28 PM EDT (10/14)
Length of Visible Light 11h 59m
Length of Day
10h 59m
Waning Crescent, 1% of the Moon is Illuminated
Oct 14
Waning Crescent
Oct 15
New
Oct 21
First Quarter
Oct 29
Full
Nov 6
Last Quarter

Hourly Weather History & Observations

Time (EDT) Temp. Windchill Dew Point Humidity Pressure Visibility Wind Dir Wind Speed Gust Speed Precip Events Conditions
12:00 AM 42.8 °F 36.6 °F 37.4 °F 81% 30.19 in 6.0 mi SW 11.5 mph 19.6 mph N/A Rain Light Rain
1:00 AM 41.0 °F 38.0 °F 37.4 °F 87% 30.16 in 5.0 mi SW 4.6 mph - N/A Rain Light Rain
2:00 AM 40 °F - 38 °F 90% 30.11 in 6 mi SE 15.0 mph - - Rain Light Rain
2:00 AM 41.0 °F 33.9 °F 37.4 °F 87% 30.11 in 6.0 mi SE 12.7 mph 20.7 mph N/A Rain Light Rain
3:00 AM 39.2 °F 32.5 °F 37.4 °F 93% 30.06 in 7.0 mi SE 10.4 mph - N/A Rain Light Rain
3:29 AM 41.0 °F 35.8 °F - N/A% - 6.0 mi ESE 8.1 mph - N/A Rain Light Rain
4:00 AM 41.0 °F 34.7 °F 39.2 °F 93% 30.03 in 6.0 mi SE 10.4 mph - N/A Rain Light Rain
4:48 AM 41.0 °F 35.2 °F - N/A% - 6.0 mi ESE 9.2 mph - N/A Rain Light Rain
5:00 AM 41.0 °F 34.7 °F 39.2 °F 93% 30.01 in 5.0 mi SE 10.4 mph - N/A Rain Light Rain
6:00 AM 41.0 °F 37.1 °F 41.0 °F 100% 30.01 in 6.0 mi ESE 5.8 mph - N/A Rain Light Rain
6:36 AM 41.0 °F 35.8 °F - N/A% - 6.0 mi SE 8.1 mph - N/A Rain Light Rain
7:00 AM 42.8 °F 38.6 °F 41.0 °F 93% 29.99 in 8.0 mi SE 6.9 mph - N/A Rain Light Rain
8:00 AM 43 °F - 41 °F 88% 30.01 in 6 mi ESE 3.5 mph - - Rain Light Rain
8:00 AM 42.8 °F 41.1 °F 41.0 °F 93% 30.01 in 6.0 mi ESE 3.5 mph - N/A   Overcast
8:38 AM 42.8 °F 41.1 °F - N/A% - 4.0 mi East 3.5 mph - N/A   Overcast
9:00 AM 42.8 °F 40.1 °F 41.0 °F 93% 30.00 in 3.0 mi ESE 4.6 mph - N/A   Overcast
9:37 AM 44.6 °F 43.1 °F - N/A% - 5.0 mi East 3.5 mph - N/A   Overcast
10:00 AM 44.6 °F 42.2 °F 41.0 °F 87% 30.00 in 10.0 mi East 4.6 mph - N/A   Overcast
10:51 AM 44.6 °F - - N/A% - 10.0 mi East 2.3 mph - N/A   Light Drizzle
11:00 AM 44.6 °F 43.1 °F 42.8 °F 93% 30.00 in 10.0 mi East 3.5 mph - N/A   Light Drizzle
11:38 AM 44.6 °F 41.4 °F - N/A% - 2.0 mi NNE 5.8 mph - N/A   Light Drizzle
11:48 AM 44.6 °F 40.2 °F - N/A% - 2.0 mi NNE 8.1 mph - N/A   Light Drizzle
11:54 AM 44.6 °F 39.7 °F - N/A% - 1.5 mi NNE 9.2 mph - N/A   Light Drizzle
12:00 PM 44.6 °F 40.7 °F 42.8 °F 93% 29.99 in 2.0 mi NNE 6.9 mph - N/A   Light Drizzle
12:07 PM 44.6 °F 41.4 °F - N/A% - 2.0 mi NNE 5.8 mph - N/A   Light Drizzle
12:23 PM 44.6 °F 40.7 °F - N/A% - 2.0 mi NNE 6.9 mph - N/A   Light Drizzle
12:34 PM 44.6 °F 40.2 °F - N/A% - 2.0 mi NNE 8.1 mph - N/A   Light Drizzle
12:47 PM 42.8 °F 38.0 °F - N/A% - 1.2 mi NE 8.1 mph - N/A   Light Drizzle
1:00 PM 44.6 °F 40.2 °F 42.8 °F 93% 29.96 in 1.5 mi NE 8.1 mph - N/A   Light Drizzle
1:13 PM 44.6 °F 40.2 °F - N/A% - 3.0 mi NNE 8.1 mph - N/A   Light Drizzle
1:22 PM 44.6 °F 39.2 °F - N/A% - 2.5 mi NNE 10.4 mph - N/A   Light Drizzle
1:50 PM 44.6 °F 40.2 °F - N/A% - 1.0 mi NNE 8.1 mph - N/A   Light Drizzle
2:00 PM 44 °F - 43 °F 97% 29.94 in 1 mi NE 9.2 mph - - Rain Light Drizzle
2:00 PM 44.6 °F 40.2 °F 42.8 °F 93% 29.94 in 1.0 mi NE 8.1 mph - N/A   Light Drizzle
2:46 PM 44.6 °F 39.2 °F - N/A% - 0.8 mi NNE 10.4 mph - N/A Rain Light Rain
3:00 PM 44.6 °F 38.8 °F 42.8 °F 93% 29.91 in 1.2 mi NE 11.5 mph - N/A Rain Light Rain
3:09 PM 44.6 °F 39.7 °F - N/A% - 2.5 mi NE 9.2 mph - N/A Rain Light Rain
3:18 PM 44.6 °F 38.8 °F - N/A% - 4.0 mi NE 11.5 mph - N/A Rain Light Rain
3:37 PM 44.6 °F 40.2 °F - N/A% - 2.0 mi NNE 8.1 mph - N/A Rain Light Rain
4:00 PM 44.6 °F 39.7 °F 44.6 °F 100% 29.89 in 5.0 mi NE 9.2 mph - N/A Rain Light Rain
4:16 PM 44.6 °F 40.2 °F - N/A% - 5.0 mi NNE 8.1 mph - N/A Rain Light Rain
5:00 PM 46.4 °F 41.9 °F 44.6 °F 93% 29.86 in 2.0 mi NE 9.2 mph - N/A Rain Light Rain
5:42 PM 46.4 °F 41.1 °F - N/A% - 1.5 mi North 11.5 mph - N/A Rain Light Rain
6:00 PM 46.4 °F 41.1 °F 44.6 °F 93% 29.86 in 4.0 mi NE 11.5 mph 17.3 mph N/A Rain Light Rain
6:44 PM 50.0 °F - - N/A% - 2.0 mi East 9.2 mph - N/A Rain Light Rain
6:54 PM 50.0 °F - - N/A% - 1.2 mi East 5.8 mph - N/A Rain Light Rain
7:00 PM 50.0 °F - 48.2 °F 94% 29.83 in 1.2 mi ENE 6.9 mph - N/A Rain Light Rain
7:23 PM 50.0 °F - - N/A% - 4.0 mi ENE 8.1 mph - N/A Rain Light Rain
7:34 PM 50.0 °F - - N/A% - 4.0 mi NE 9.2 mph - N/A   Light Drizzle
7:53 PM 50.0 °F - - N/A% - 4.0 mi NE 8.1 mph - N/A   Light Drizzle
8:00 PM 49 °F - 48 °F 97% 29.81 in 6 mi NNE 8.1 mph - - Rain Light Drizzle
8:00 PM 50.0 °F - 48.2 °F 94% 29.81 in 6.0 mi NNE 9.2 mph - N/A   Light Drizzle
8:37 PM 48.2 °F - - N/A% - 6.0 mi North 9.2 mph - N/A   Overcast
8:51 PM 50.0 °F - - N/A% - 5.0 mi NE 8.1 mph - N/A Rain Light Rain
9:00 PM 50.0 °F - 48.2 °F 94% 29.75 in 6.0 mi ENE 9.2 mph - N/A   Overcast
9:12 PM 50.0 °F - - N/A% - 6.0 mi ENE 8.1 mph - N/A   Overcast
9:31 PM 50.0 °F - - N/A% - 6.0 mi NNE 4.6 mph - N/A   Overcast
10:00 PM 50.0 °F - 48.2 °F 94% 29.74 in 6.0 mi NNE 6.9 mph - N/A   Overcast
10:16 PM 50.0 °F - - N/A% - 6.0 mi NNE 6.9 mph - N/A   Overcast
11:00 PM 48.2 °F - 48.2 °F 100% 29.71 in 6.0 mi NNE 4.6 mph - N/A   Overcast
11:32 PM 48.2 °F - - N/A% - 6.0 mi North 9.2 mph - N/A   Overcast